sat.trackr.live / text

‹ back to catalog

STARLINK-36371

NORAD 67938 · 2026-037G

PAYLOAD ACTIVE UNKNOWN

§ Identity

Operator
Country
US
Launch date
2026-02-24
Launch site
AFETR
Launch vehicle
Mass (kg)
RCS (m²)

Purposes: comms

External: N2YO · Heavens-Above · Gunter

§ Orbital elements

Epoch: 2026-05-25T05:18:42.219072Z

Period
94.26 min
Inclination
42.9972°
Eccentricity
0.0001091
Mean motion
15.27613785 rev/d
Perigee alt
482.2 km
Apogee alt
483.7 km
Semi-major
6,861.1 km
B*
5.9194e-4
RAAN
118.6533°
Arg perigee
263.7991°
Mean anomaly
96.2736°
Rev number
1,504

§ Raw data

STARLINK-363711 67938U 26037G   26145.22132198  .00016079  00000+0  59194-3 0  99902 67938  42.9972 118.6533 0001091 263.7991  96.2736 15.27613785 15041

JSON: /api/v1/satellites/67938 · /tle

For live sub-satellite position, see the globe view (requires WebGL).

§ Visibility from observer

Set your observer location to see the next 7 days of passes ≥ 10°. The values pass through the URL so the page stays shareable.

No JS? Fill the form by hand. The geolocation button needs JavaScript.